Location: Bottenau
(48.5138°N, 8.0462°E)
Time: 02:29:22
(UTC+00:00)

ATLAS 3B R/B - Visible Passes

Search period start: 26 July 2021 00:00
Search period end: 05 August 2021 00:00
Orbit: 1003 x 1191 km, 63.8° (Epoch: 21 July)

Date Brightness Start Highest point End Pass type
(mag) Time Alt. Az. Time Alt. Az. Time Alt. Az.
26 Jul 3.3 21:14:49 10° NW 21:21:38 51° WSW 21:26:36 20° S visible
27 Jul 2.9 20:27:24 10° NW 20:34:29 75° SW 20:40:50 15° SSE visible
27 Jul 4.6 22:19:39 10° WNW 22:24:11 18° WSW 22:28:05 12° SW visible
28 Jul 2.9 19:40:06 10° NW 19:47:12 78° NE 19:54:34 10° SE visible
28 Jul 4.1 21:31:27 10° WNW 21:37:23 29° WSW 21:42:22 14° SSW visible
29 Jul 3.6 20:43:45 10° NW 20:50:25 44° WSW 20:56:42 13° S visible
30 Jul 3.1 19:56:17 10° NW 20:03:18 67° SW 20:10:36 10° SSE visible
30 Jul 4.9 21:49:01 10° WNW 21:52:52 15° WSW 21:56:45 10° SW visible
31 Jul 4.4 21:00:30 10° WNW 21:06:06 25° WSW 21:11:50 10° SSW visible
01 Aug 3.9 20:12:41 10° NW 20:19:10 39° WSW 20:25:53 10° S visible
02 Aug 5.1 21:18:39 10° W 21:21:31 13° WSW 21:24:24 10° SW visible
03 Aug 4.7 20:29:38 10° WNW 20:34:48 22° WSW 20:40:05 10° SSW visible
04 Aug 4.2 19:41:40 10° NW 19:47:56 34° WSW 19:54:23 10° S visible
